• In Germany
  • List of Countries
  • For 7 days
  • Water Temperature
  • Satellite Maps
  • Weather Map
  • Weather Widgets
  • user-avatar
    Login

    Hourly Weather Manama

    Today, 23 June, Friday

    Time Temperature Precipitation Wind Pressure Humidity
    00:00 +39°C° 0 mm 12 mps 750 mmHg 37%
    01:00 +39°C° 0 mm 12 mps 750 mmHg 39%
    02:00 +38°C° 0 mm 11 mps 750 mmHg 40%
    03:00 +38°C° 0 mm 11 mps 750 mmHg 41%
    04:00 +38°C° 0 mm 11 mps 750 mmHg 41%
    05:00 +38°C° 0 mm 11 mps 750 mmHg 41%
    06:00 +37°C° 0 mm 11 mps 751 mmHg 42%
    07:00 +38°C° 0 mm 11 mps 751 mmHg 38%
    08:00 +39°C° 0 mm 11 mps 751 mmHg 34%
    09:00 +41°C° 0 mm 11 mps 751 mmHg 30%
    10:00 +42°C° 0 mm 11 mps 751 mmHg 28%
    11:00 +42°C° 0 mm 11 mps 751 mmHg 26%
    12:00 +42°C° 0 mm 12 mps 751 mmHg 23%
    13:00 +42°C° 0 mm 12 mps 751 mmHg 22%
    14:00 +42°C° 0 mm 12 mps 751 mmHg 21%
    15:00 +42°C° 0 mm 12 mps 750 mmHg 20%
    16:00 +42°C° 0 mm 11 mps 750 mmHg 22%
    17:00 +41°C° 0 mm 11 mps 750 mmHg 23%
    18:00 +40°C° 0 mm 10 mps 750 mmHg 25%
    19:00 +39°C° 0 mm 9 mps 750 mmHg 27%
    20:00 +39°C° 0 mm 9 mps 750 mmHg 30%
    21:00 +38°C° 0 mm 8 mps 750 mmHg 32%
    22:00 +38°C° 0 mm 8 mps 750 mmHg 34%
    23:00 +38°C° 0 mm 8 mps 750 mmHg 35%

    Tomorrow, 24 June, Saturday

    Time Temperature Precipitation Wind Pressure Humidity
    00:00 +38°C° 0 mm 8 mps 750 mmHg 36%
    01:00 +37°C° 0 mm 8 mps 750 mmHg 37%
    02:00 +37°C° 0 mm 9 mps 750 mmHg 38%
    03:00 +37°C° 0 mm 9 mps 749 mmHg 40%
    04:00 +37°C° 0 mm 9 mps 750 mmHg 41%
    05:00 +37°C° 0 mm 9 mps 750 mmHg 41%
    06:00 +37°C° 0 mm 9 mps 750 mmHg 42%
    07:00 +38°C° 0 mm 9 mps 750 mmHg 37%
    08:00 +39°C° 0 mm 9 mps 750 mmHg 32%
    09:00 +42°C° 0 mm 9 mps 751 mmHg 27%
    10:00 +42°C° 0 mm 9 mps 751 mmHg 24%
    11:00 +43°C° 0 mm 9 mps 751 mmHg 22%
    12:00 +44°C° 0 mm 8 mps 751 mmHg 20%
    13:00 +43°C° 0 mm 8 mps 750 mmHg 20%
    14:00 +43°C° 0 mm 9 mps 750 mmHg 21%
    15:00 +43°C° 0 mm 9 mps 749 mmHg 21%
    16:00 +41°C° 0 mm 8 mps 749 mmHg 22%
    17:00 +41°C° 0 mm 7 mps 749 mmHg 23%
    18:00 +40°C° 0 mm 7 mps 749 mmHg 24%
    19:00 +39°C° 0 mm 5 mps 749 mmHg 28%
    20:00 +37°C° 0 mm 4 mps 750 mmHg 32%
    21:00 +36°C° 0 mm 3 mps 750 mmHg 37%
    22:00 +35°C° 0 mm 3 mps 749 mmHg 37%
    23:00 +35°C° 0 mm 3 mps 749 mmHg 38%

    Day after tomorrow, 25 June, Sunday

    Time Temperature Precipitation Wind Pressure Humidity
    00:00 +35°C° 0 mm 3 mps 749 mmHg 39%
    01:00 +35°C° 0 mm 3 mps 749 mmHg 38%
    02:00 +35°C° 0 mm 3 mps 749 mmHg 38%
    03:00 +35°C° 0 mm 4 mps 748 mmHg 38%
    04:00 +35°C° 0 mm 5 mps 749 mmHg 41%
    05:00 +35°C° 0 mm 5 mps 749 mmHg 44%
    06:00 +35°C° 0 mm 6 mps 749 mmHg 47%
    07:00 +38°C° 0 mm 6 mps 749 mmHg 42%
    08:00 +40°C° 0 mm 7 mps 749 mmHg 36%
    09:00 +41°C° 0 mm 7 mps 750 mmHg 30%
    10:00 +43°C° 0 mm 8 mps 749 mmHg 27%
    11:00 +44°C° 0 mm 8 mps 749 mmHg 25%
    12:00 +45°C° 0 mm 8 mps 749 mmHg 22%
    13:00 +44°C° 0 mm 8 mps 749 mmHg 22%
    14:00 +44°C° 0 mm 8 mps 748 mmHg 23%
    15:00 +44°C° 0 mm 8 mps 748 mmHg 24%
    16:00 +43°C° 0 mm 7 mps 748 mmHg 26%
    17:00 +41°C° 0 mm 7 mps 748 mmHg 29%
    18:00 +40°C° 0 mm 6 mps 748 mmHg 31%
    19:00 +39°C° 0 mm 5 mps 748 mmHg 33%
    20:00 +37°C° 0 mm 4 mps 749 mmHg 36%
    21:00 +36°C° 0 mm 4 mps 749 mmHg 38%
    22:00 +36°C° 0 mm 3 mps 749 mmHg 37%
    23:00 +36°C° 0 mm 3 mps 749 mmHg 36%

    26 June, Monday

    Time Temperature Precipitation Wind Pressure Humidity
    00:00 +35°C° 0 mm 3 mps 749 mmHg 35%
    01:00 +35°C° 0 mm 3 mps 748 mmHg 33%
    02:00 +36°C° 0 mm 3 mps 748 mmHg 31%
    03:00 +36°C° 0 mm 4 mps 748 mmHg 29%
    04:00 +36°C° 0 mm 4 mps 748 mmHg 27%
    05:00 +36°C° 0 mm 5 mps 749 mmHg 26%
    06:00 +37°C° 0 mm 5 mps 749 mmHg 25%
    07:00 +39°C° 0 mm 5 mps 749 mmHg 24%
    08:00 +41°C° 0 mm 6 mps 750 mmHg 23%
    09:00 +44°C° 0 mm 6 mps 750 mmHg 21%
    10:00 +45°C° 0 mm 6 mps 750 mmHg 21%
    11:00 +45°C° 0 mm 6 mps 750 mmHg 20%
    12:00 +46°C° 0 mm 6 mps 750 mmHg 19%
    13:00 +46°C° 0 mm 7 mps 749 mmHg 19%
    14:00 +46°C° 0 mm 7 mps 749 mmHg 19%
    15:00 +46°C° 0 mm 7 mps 749 mmHg 19%
    16:00 +45°C° 0 mm 7 mps 749 mmHg 22%
    17:00 +44°C° 0 mm 7 mps 749 mmHg 24%
    18:00 +42°C° 0 mm 6 mps 749 mmHg 26%
    19:00 +41°C° 0 mm 6 mps 749 mmHg 27%
    20:00 +40°C° 0 mm 6 mps 749 mmHg 29%
    21:00 +40°C° 0 mm 5 mps 749 mmHg 30%
    22:00 +40°C° 0 mm 6 mps 749 mmHg 29%
    23:00 +40°C° 0 mm 6 mps 749 mmHg 27%

    27 June, Tuesday

    Time Temperature Precipitation Wind Pressure Humidity
    00:00 +40°C° 0 mm 6 mps 748 mmHg 26%
    01:00 +40°C° 0 mm 6 mps 748 mmHg 25%
    02:00 +39°C° 0 mm 7 mps 748 mmHg 24%
    03:00 +39°C° 0 mm 7 mps 748 mmHg 24%
    04:00 +39°C° 0 mm 7 mps 748 mmHg 23%
    05:00 +39°C° 0 mm 7 mps 748 mmHg 22%
    06:00 +40°C° 0 mm 7 mps 749 mmHg 22%
    07:00 +41°C° 0 mm 7 mps 749 mmHg 19%
    08:00 +44°C° 0 mm 7 mps 749 mmHg 17%
    09:00 +46°C° 0 mm 7 mps 749 mmHg 14%
    10:00 +47°C° 0 mm 7 mps 749 mmHg 14%
    11:00 +47°C° 0 mm 7 mps 749 mmHg 14%
    12:00 +49°C° 0 mm 7 mps 749 mmHg 14%
    13:00 +49°C° 0 mm 7 mps 748 mmHg 14%
    14:00 +49°C° 0 mm 7 mps 748 mmHg 15%
    15:00 +47°C° 0 mm 7 mps 748 mmHg 16%
    16:00 +46°C° 0 mm 7 mps 748 mmHg 18%
    17:00 +45°C° 0 mm 6 mps 748 mmHg 20%
    18:00 +44°C° 0 mm 6 mps 748 mmHg 22%
    19:00 +42°C° 0 mm 5 mps 748 mmHg 23%
    20:00 +41°C° 0 mm 4 mps 748 mmHg 25%
    21:00 +40°C° 0 mm 4 mps 748 mmHg 27%
    22:00 +40°C° 0 mm 4 mps 748 mmHg 25%
    23:00 +40°C° 0 mm 5 mps 747 mmHg 24%

    28 June, Wednesday

    Time Temperature Precipitation Wind Pressure Humidity
    00:00 +40°C° 0 mm 5 mps 747 mmHg 22%
    01:00 +40°C° 0 mm 5 mps 747 mmHg 22%
    02:00 +40°C° 0 mm 4 mps 747 mmHg 22%
    03:00 +40°C° 0 mm 4 mps 747 mmHg 23%
    04:00 +38°C° 0 mm 4 mps 747 mmHg 22%
    05:00 +38°C° 0 mm 3 mps 747 mmHg 21%
    06:00 +38°C° 0 mm 3 mps 748 mmHg 20%
    07:00 +40°C° 0 mm 3 mps 748 mmHg 17%
    08:00 +43°C° 0 mm 3 mps 748 mmHg 15%
    09:00 +45°C° 0 mm 3 mps 748 mmHg 12%
    10:00 +45°C° 0 mm 3 mps 748 mmHg 13%
    11:00 +45°C° 0 mm 3 mps 748 mmHg 14%
    12:00 +46°C° 0 mm 3 mps 748 mmHg 15%
    13:00 +46°C° 0 mm 3 mps 747 mmHg 16%
    14:00 +46°C° 0 mm 3 mps 747 mmHg 16%
    15:00 +46°C° 0 mm 3 mps 746 mmHg 17%
    16:00 +45°C° 0 mm 2 mps 746 mmHg 18%
    17:00 +43°C° 0 mm 2 mps 746 mmHg 18%
    18:00 +43°C° 0 mm 2 mps 746 mmHg 19%
    19:00 +42°C° 0 mm 2 mps 747 mmHg 21%
    20:00 +40°C° 0 mm 2 mps 747 mmHg 23%
    21:00 +39°C° 0 mm 2 mps 747 mmHg 25%
    22:00 +39°C° 0 mm 3 mps 747 mmHg 31%
    23:00 +38°C° 0 mm 4 mps 747 mmHg 38%
    Show more